AirNav  
 
 1394 users online  

85KY Deer Run Airpark
New Castle, Kentucky, USA

GOING TO NEW CASTLE?


FAA INFORMATION EFFECTIVE 25 FEBRUARY 2021

Location

FAA Identifier: 85KY
Lat/Long: 38-28-13.0000N 085-08-19.0000W
38-28.216667N 085-08.316667W
38.4702778,-85.1386111
(estimated)
Elevation: 890 ft. / 271.3 m (surveyed)
Variation: 02W (1985)
From city: 3 miles NE of NEW CASTLE, KY
Time zone: UTC -5 (UTC -4 during Daylight Saving Time)
Zip code: 40011

Airport Operations

Airport use: Private use. Permission required prior to landing
Activation date: 03/1988
Control tower: no
ARTCC: INDIANAPOLIS CENTER
FSS: LOUISVILLE FLIGHT SERVICE STATION
Attendance: IREG
Wind indicator: yes
Segmented circle: no

Nearby radio navigation aids

VOR radial/distance  VOR name  Freq  Var
FFTr331/(20.4)FRANKFORT VOR109.4003W
IIUr042/30.2LOUISVILLE VORTAC114.8001E
CVGr216/38.6CINCINNATI VORTAC117.3004W

Airport Services

Runway Information

Runway 14/32

Dimensions: 3100 x 60 ft. / 945 x 18 m
Surface: turf
Runway edge markings: RED CONES THLDS & EDGE.
RUNWAY 14  RUNWAY 32
Traffic pattern: leftleft
Obstructions: none14 ft. pline, marked, 300 ft. from runway

Airport Ownership and Management from official FAA records

Ownership: Privately-owned
Owner: DEER RUN AIRPARK OWNERS ASSN
2680 DRENNON RD
NEW CASTLE, KY 40050
Phone 502-845-2216
ADDTL PHONE 502-706-0108
Manager: WILLIAM G GEIGER
2680 DRENNON RD
NEW CASTLE, KY 40050
Phone 502-845-2216

Airport Operational Statistics

Aircraft based on the field: 9
Single engine airplanes: 9
    

Additional Remarks

FOR CD CTC LOUISVILLE APCH AT 502-375-7499

Instrument Procedures

There are no published instrument procedures at 85KY.

Some nearby airports with instrument procedures:

KFFT - Capital City Airport (20 nm SE)
KIMS - Madison Municipal Airport (23 nm NW)
KLOU - Bowman Field Airport (29 nm SW)
KJVY - Clark Regional Airport (29 nm W)
KSDF - Louisville Muhammad Ali International Airport (33 nm SW)
 
Loc | Ops | Rwys | IFR | FBO | Links
Com | Nav | Svcs | Stats | Notes
Area around 85KY (Deer Run Airpark)
 
Road maps at: MapQuest Bing Google
 
Aerial photo
No photo
 
Sectional chart

 
Airport distance calculator
Flying to Deer Run Airpark? Find the distance to fly.

From to 85KY

Sunrise and sunset
Times for 05-Mar-2021
 Local
(UTC-5)
 Zulu
(UTC)
Morning civil twilight06:4111:41
Sunrise07:0812:08
Sunset18:3623:36
Evening civil twilight19:0300:03

Current date and time
Zulu (UTC)  05-Mar-2021 17:53:42
Local (UTC-5)  05-Mar-2021 12:53:42
 
METAR
KFFT 
21nm SE 
051653Z AUTO 03004KT 10SM CLR 04/M09 A3033 RMK AO2 SLP276 T00391089
KIMS 
23nm NW 
051655Z AUTO 00000KT 10SM CLR 03/M08 A3036 RMK AO1
KJVY 
29nm W 
051655Z AUTO 05004KT 10SM CLR 05/M07 A3036 RMK AO2 T00481069 TSNO
KLOU 
29nm SW 
051653Z 06007KT 10SM CLR 05/M09 A3035 RMK AO2 SLP281 T00501094
KSDF 
33nm SW 
051656Z VRB04KT 10SM BKN250 04/M09 A3036 RMK AO2 SLP282 T00441094
K27K 
36nm SE 
051655Z AUTO 34003KT 10SM CLR 02/M08 A3033 RMK AO1
KLEX 
36nm SE 
051654Z VRB06KT 10SM CLR 03/M10 A3032 RMK AO2 SLP275 T00331100
KK62 
38nm E 
051655Z AUTO 02007KT 330V040 10SM CLR 03/M09 A3033 RMK AO2
TAF
KSDF 
33nm SW 
051141Z 0512/0618 05007KT P6SM SKC FM051900 02009KT P6SM SKC
KLEX 
36nm SE 
051141Z 0512/0612 06007KT P6SM SKC FM051800 02008KT P6SM SKC
NOTAMs
Click for the latest NOTAMs
NOTAMs are issued by the DoD/FAA and will open in a separate window not controlled by AirNav.

 

 
 

Would you like to see your business listed on this page?

 If your business provides an interesting product or service to pilots, flight crews, aircraft, or users of the Deer Run Airpark, you should consider listing it here.  To start the listing process, click on the button below
 
Add a business
 

Other Pages about Deer Run Airpark

Update a link
 
Copyright © AirNav, LLC. All rights reserved. Privacy Policy  Contact